Location: Beetenbrück
(52.8113°N, 9.5946°E)
Time: 21:24:53
(UTC+00:00)

Cosmos 1455 Rocket - Pass Details

Date: 14 April 2026
Orbit: 598 x 622 km, 82.5° (Epoch: 12 May)

Event Time Altitude Azimuth Distance (km) Brightness Sun altitude
Exits shadow 23:49:42 56° 347° (NNW) 743 3.6 -27.2°
Drops below altitude 10° 23:53:18 10° 8° (N) 2,004 6.7 -27.1°
Sets 23:55:34 0° 10° (N) 2,916 7.8 -27.1°
